Year,Month,Day,Hour,Minute,Value (Times are PST for temperature in C)
2011,05,26,00,02,9.60
2011,05,26,00,03,9.60
2011,05,26,00,05,9.60
2011,05,26,00,06,9.70
2011,05,26,00,07,9.60
2011,05,26,00,08,9.60
2011,05,26,00,10,9.60
2011,05,26,00,11,9.60
2011,05,26,00,12,9.60
2011,05,26,00,13,9.60
2011,05,26,00,15,9.60
2011,05,26,00,16,9.60
2011,05,26,00,17,9.60
2011,05,26,00,18,9.60
2011,05,26,00,19,9.60
2011,05,26,00,20,9.60
2011,05,26,00,21,9.60
2011,05,26,00,22,9.60
2011,05,26,00,23,9.60
2011,05,26,00,24,9.60
2011,05,26,00,25,9.60
2011,05,26,00,26,9.50
2011,05,26,00,27,9.50
2011,05,26,00,28,9.60
2011,05,26,00,30,9.50
2011,05,26,00,31,9.50
2011,05,26,00,32,9.50
2011,05,26,00,33,9.50
2011,05,26,00,34,9.50
2011,05,26,00,35,9.50
2011,05,26,00,36,9.50
2011,05,26,00,37,9.40
2011,05,26,00,38,9.40
2011,05,26,00,39,9.40
2011,05,26,00,40,9.40
2011,05,26,00,41,9.40
2011,05,26,00,42,9.40
2011,05,26,00,43,9.40
2011,05,26,00,44,9.40
2011,05,26,00,45,9.40
2011,05,26,00,46,9.40
2011,05,26,00,47,9.40
2011,05,26,00,49,9.40
2011,05,26,00,50,9.40
2011,05,26,00,51,9.40
2011,05,26,00,52,9.40
2011,05,26,00,53,9.30
2011,05,26,00,54,9.30
2011,05,26,00,55,9.30
2011,05,26,00,56,9.30
2011,05,26,00,57,9.30
2011,05,26,00,58,9.30
2011,05,26,00,59,9.40
2011,05,26,01,00,9.40
2011,05,26,01,01,9.30
2011,05,26,01,02,9.30
2011,05,26,01,03,9.40
2011,05,26,01,04,9.30
2011,05,26,01,05,9.40
2011,05,26,01,06,9.30
2011,05,26,01,08,9.30
2011,05,26,01,09,9.40
2011,05,26,01,10,9.40
2011,05,26,01,12,9.40
2011,05,26,01,13,9.40
2011,05,26,01,14,9.40
2011,05,26,01,15,9.40
2011,05,26,01,16,9.40
2011,05,26,01,17,9.40
2011,05,26,01,18,9.40
2011,05,26,01,19,9.40
2011,05,26,01,20,9.40
2011,05,26,01,21,9.40
2011,05,26,01,22,9.40
2011,05,26,01,23,9.40
2011,05,26,01,24,9.40
2011,05,26,01,25,9.40
2011,05,26,01,26,9.40
2011,05,26,01,27,9.40
2011,05,26,01,28,9.40
2011,05,26,01,30,9.40
2011,05,26,01,31,9.40
2011,05,26,01,32,9.40
2011,05,26,01,33,9.50
2011,05,26,01,34,9.40
2011,05,26,01,36,9.50
2011,05,26,01,37,9.40
2011,05,26,01,38,9.40
2011,05,26,01,39,9.50
2011,05,26,01,40,9.50
2011,05,26,01,41,9.40
2011,05,26,01,42,9.40
2011,05,26,01,43,9.40
2011,05,26,01,44,9.40
2011,05,26,01,45,9.40
2011,05,26,01,47,9.40
2011,05,26,01,48,9.40
2011,05,26,01,49,9.40
2011,05,26,01,50,9.40
2011,05,26,01,52,9.40
2011,05,26,01,53,9.40
2011,05,26,01,54,9.40
2011,05,26,01,55,9.40
2011,05,26,01,57,9.40
2011,05,26,01,58,9.30
2011,05,26,01,59,9.30
2011,05,26,02,00,9.30
2011,05,26,02,01,9.30
2011,05,26,02,02,9.30
2011,05,26,02,03,9.30
2011,05,26,02,04,9.30
2011,05,26,02,06,9.30
2011,05,26,02,07,9.30
2011,05,26,02,08,9.30
2011,05,26,02,09,9.20
2011,05,26,02,11,9.20
2011,05,26,02,12,9.20
2011,05,26,02,13,9.20
2011,05,26,02,14,9.20
2011,05,26,02,15,9.20
2011,05,26,02,16,9.20
2011,05,26,02,17,9.20
2011,05,26,02,18,9.20
2011,05,26,02,19,9.20
2011,05,26,02,20,9.20
2011,05,26,02,21,9.20
2011,05,26,02,22,9.20
2011,05,26,02,23,9.20
2011,05,26,02,24,9.10
2011,05,26,02,25,9.20
2011,05,26,02,26,9.10
2011,05,26,02,27,9.10
2011,05,26,02,28,9.10
2011,05,26,02,30,9.10
2011,05,26,02,31,9.10
2011,05,26,02,32,9.10
2011,05,26,02,34,9.10
2011,05,26,02,35,9.00
2011,05,26,02,36,9.10
2011,05,26,02,38,9.10
2011,05,26,02,39,9.10
2011,05,26,02,40,9.10
2011,05,26,02,41,9.10
2011,05,26,02,42,9.10
2011,05,26,02,43,9.10
2011,05,26,02,44,9.10
2011,05,26,02,45,9.10
2011,05,26,02,46,9.10
2011,05,26,02,47,9.10
2011,05,26,02,48,9.00
2011,05,26,02,49,9.10
2011,05,26,02,51,9.10
2011,05,26,02,52,9.00
2011,05,26,02,53,9.00
2011,05,26,02,54,9.00
2011,05,26,02,55,9.00
2011,05,26,02,56,9.00
2011,05,26,02,57,9.00
2011,05,26,02,58,8.90
2011,05,26,02,59,8.90
2011,05,26,03,00,8.90
2011,05,26,03,01,8.90
2011,05,26,03,02,9.00
2011,05,26,03,03,9.00
2011,05,26,03,05,8.90
2011,05,26,03,06,8.90
2011,05,26,03,07,8.90
2011,05,26,03,08,8.90
2011,05,26,03,10,8.90
2011,05,26,03,11,8.90
2011,05,26,03,12,8.90
2011,05,26,03,13,8.90
2011,05,26,03,15,8.90
2011,05,26,03,16,8.90
2011,05,26,03,17,8.90
2011,05,26,03,18,8.90
2011,05,26,03,20,8.90
2011,05,26,03,21,8.90
2011,05,26,03,22,8.90
2011,05,26,03,23,8.90
2011,05,26,03,24,8.90
2011,05,26,03,25,8.90
2011,05,26,03,26,8.90
2011,05,26,03,27,8.90
2011,05,26,03,28,8.90
2011,05,26,03,29,8.90
2011,05,26,03,30,8.90
2011,05,26,03,31,8.90
2011,05,26,03,32,8.90
2011,05,26,03,34,8.90
2011,05,26,03,35,8.90
2011,05,26,03,36,8.80
2011,05,26,03,37,8.80
2011,05,26,03,39,8.80
2011,05,26,03,40,8.80
2011,05,26,03,41,8.80
2011,05,26,03,42,8.80
2011,05,26,03,43,8.90
2011,05,26,03,45,8.90
2011,05,26,03,46,8.90
2011,05,26,03,47,8.90
2011,05,26,03,49,8.90
2011,05,26,03,50,8.90
2011,05,26,03,51,8.90
2011,05,26,03,52,8.90
2011,05,26,03,53,8.90
2011,05,26,03,54,8.90
2011,05,26,03,55,8.90
2011,05,26,03,56,8.90
2011,05,26,03,58,8.90
2011,05,26,03,59,8.90
2011,05,26,04,00,8.90
2011,05,26,04,01,8.90
2011,05,26,04,02,8.90
2011,05,26,04,04,8.80
2011,05,26,04,05,8.80
2011,05,26,04,06,8.80
2011,05,26,04,07,8.80
2011,05,26,04,08,8.80
2011,05,26,04,10,8.80
2011,05,26,04,11,8.80
2011,05,26,04,12,8.80
2011,05,26,04,13,8.80
2011,05,26,04,15,8.80
2011,05,26,04,16,8.80
2011,05,26,04,17,8.80
2011,05,26,04,18,8.80
2011,05,26,04,20,8.80
2011,05,26,04,21,8.80
2011,05,26,04,22,8.80
2011,05,26,04,23,8.80
2011,05,26,04,24,8.80
2011,05,26,04,25,8.80
2011,05,26,04,26,8.80
2011,05,26,04,27,8.80
2011,05,26,04,28,8.80
2011,05,26,04,30,8.70
2011,05,26,04,31,8.70
2011,05,26,04,32,8.70
2011,05,26,04,33,8.70
2011,05,26,04,35,8.70
2011,05,26,04,36,8.70
2011,05,26,04,37,8.70
2011,05,26,04,38,8.70
2011,05,26,04,39,8.70
2011,05,26,04,40,8.70
2011,05,26,04,41,8.70
2011,05,26,04,42,8.70
2011,05,26,04,44,8.70
2011,05,26,04,45,8.70
2011,05,26,04,46,8.60
2011,05,26,04,47,8.60
2011,05,26,04,49,8.70
2011,05,26,04,50,8.60
2011,05,26,04,51,8.60
2011,05,26,04,52,8.60
2011,05,26,04,53,8.60
2011,05,26,04,55,8.60
2011,05,26,04,56,8.60
2011,05,26,04,57,8.60
2011,05,26,04,59,8.60
2011,05,26,05,00,8.60
2011,05,26,05,01,8.60
2011,05,26,05,02,8.60
2011,05,26,05,04,8.60
2011,05,26,05,05,8.60
2011,05,26,05,06,8.60
2011,05,26,05,07,8.60
2011,05,26,05,09,8.60
2011,05,26,05,10,8.60
2011,05,26,05,11,8.60
2011,05,26,05,12,8.60
2011,05,26,05,13,8.60
2011,05,26,05,14,8.60
2011,05,26,05,15,8.60
2011,05,26,05,16,8.60
2011,05,26,05,17,8.50
2011,05,26,05,19,8.50
2011,05,26,05,20,8.50
2011,05,26,05,21,8.50
2011,05,26,05,22,8.50
2011,05,26,05,23,8.50
2011,05,26,05,25,8.50
2011,05,26,05,26,8.50
2011,05,26,05,27,8.50
2011,05,26,05,28,8.50
2011,05,26,05,30,8.50
2011,05,26,05,31,8.50
2011,05,26,05,32,8.50
2011,05,26,05,33,8.40
2011,05,26,05,34,8.40
2011,05,26,05,36,8.40
2011,05,26,05,37,8.40
2011,05,26,05,38,8.40
2011,05,26,05,39,8.40
2011,05,26,05,41,8.40
2011,05,26,05,42,8.40
2011,05,26,05,43,8.40
2011,05,26,05,44,8.40
2011,05,26,05,45,8.40
2011,05,26,05,47,8.40
2011,05,26,05,48,8.40
2011,05,26,05,49,8.40
2011,05,26,05,51,8.40
2011,05,26,05,52,8.40
2011,05,26,05,53,8.40
2011,05,26,05,55,8.40
2011,05,26,05,56,8.40
2011,05,26,05,57,8.40
2011,05,26,05,58,8.40
2011,05,26,05,59,8.40
2011,05,26,06,00,8.50
2011,05,26,06,01,8.50
2011,05,26,06,02,8.50
2011,05,26,06,03,8.50
2011,05,26,06,04,8.50
2011,05,26,06,05,8.50
2011,05,26,06,06,8.50
2011,05,26,06,07,8.50
2011,05,26,06,09,8.50
2011,05,26,06,10,8.50
2011,05,26,06,11,8.60
2011,05,26,06,12,8.50
2011,05,26,06,13,8.50
2011,05,26,06,14,8.50
2011,05,26,06,15,8.50
2011,05,26,06,16,8.60
2011,05,26,06,17,8.60
2011,05,26,06,18,8.60
2011,05,26,06,19,8.60
2011,05,26,06,20,8.60
2011,05,26,06,21,8.60
2011,05,26,06,22,8.70
2011,05,26,06,23,8.70
2011,05,26,06,24,8.70
2011,05,26,06,25,8.70
2011,05,26,06,26,8.70
2011,05,26,06,27,8.70
2011,05,26,06,28,8.70
2011,05,26,06,30,8.70
2011,05,26,06,31,8.70
2011,05,26,06,32,8.70
2011,05,26,06,33,8.70
2011,05,26,06,35,8.70
2011,05,26,06,36,8.70
2011,05,26,06,37,8.70
2011,05,26,06,38,8.70
2011,05,26,06,39,8.70
2011,05,26,06,41,8.70
2011,05,26,06,42,8.70
2011,05,26,06,43,8.70
2011,05,26,06,44,8.70
2011,05,26,06,46,8.70
2011,05,26,06,47,8.70
2011,05,26,06,48,8.70
2011,05,26,06,49,8.70
2011,05,26,06,51,8.70
2011,05,26,06,52,8.70
2011,05,26,06,53,8.70
2011,05,26,06,55,8.80
2011,05,26,06,56,8.80
2011,05,26,06,57,8.80
2011,05,26,06,58,8.80
2011,05,26,06,59,8.80
2011,05,26,07,00,8.80
2011,05,26,07,01,8.80
2011,05,26,07,02,8.80
2011,05,26,07,04,8.80
2011,05,26,07,05,8.80
2011,05,26,07,06,8.80
2011,05,26,07,08,8.80
2011,05,26,07,09,8.80
2011,05,26,07,10,8.80
2011,05,26,07,11,8.80
2011,05,26,07,12,8.90
2011,05,26,07,14,8.80
2011,05,26,07,15,8.80
2011,05,26,07,16,8.90
2011,05,26,07,17,8.90
2011,05,26,07,19,8.90
2011,05,26,07,20,8.90
2011,05,26,07,21,8.90
2011,05,26,07,22,8.90
2011,05,26,07,24,8.90
2011,05,26,07,25,8.90
2011,05,26,07,26,8.90
2011,05,26,07,27,9.00
2011,05,26,07,28,9.00
2011,05,26,07,29,9.00
2011,05,26,07,30,9.00
2011,05,26,07,31,9.00
2011,05,26,07,32,9.10
2011,05,26,07,33,9.10
2011,05,26,07,35,9.10
2011,05,26,07,36,9.10
2011,05,26,07,37,9.10
2011,05,26,07,38,9.20
2011,05,26,07,39,9.20
2011,05,26,07,40,9.20
2011,05,26,07,41,9.20
2011,05,26,07,42,9.30
2011,05,26,07,43,9.30
2011,05,26,07,44,9.30
2011,05,26,07,46,9.30
2011,05,26,07,47,9.30
2011,05,26,07,48,9.30
2011,05,26,07,50,9.30
2011,05,26,07,51,9.40
2011,05,26,07,52,9.30
2011,05,26,07,53,9.30
2011,05,26,07,54,9.30
2011,05,26,07,55,9.30
2011,05,26,07,56,9.40
2011,05,26,07,57,9.40
2011,05,26,07,58,9.40
2011,05,26,07,59,9.40
2011,05,26,08,00,9.40
2011,05,26,08,02,9.40
2011,05,26,08,03,9.40
2011,05,26,08,04,9.40
2011,05,26,08,05,9.40
2011,05,26,08,06,9.40
2011,05,26,08,08,9.40
2011,05,26,08,09,9.60
2011,05,26,08,10,9.60
2011,05,26,08,11,9.60
2011,05,26,08,12,9.70
2011,05,26,08,13,9.70
2011,05,26,08,14,9.70
2011,05,26,08,15,9.80
2011,05,26,08,16,9.80
2011,05,26,08,17,9.80
2011,05,26,08,18,9.80
2011,05,26,08,19,9.80
2011,05,26,08,20,9.80
2011,05,26,08,21,9.90
2011,05,26,08,22,9.90
2011,05,26,08,23,9.90
2011,05,26,08,24,9.90
2011,05,26,08,25,10.00
2011,05,26,08,26,10.10
2011,05,26,08,27,10.10
2011,05,26,08,28,10.10
2011,05,26,08,29,10.10
2011,05,26,08,31,10.10
2011,05,26,08,32,10.10
2011,05,26,08,33,10.20
2011,05,26,08,34,10.20
2011,05,26,08,35,10.20
2011,05,26,08,36,10.20
2011,05,26,08,37,10.20
2011,05,26,08,38,10.20
2011,05,26,08,39,10.20
2011,05,26,08,40,10.20
2011,05,26,08,41,10.20
2011,05,26,08,42,10.20
2011,05,26,08,43,10.20
2011,05,26,08,44,10.20
2011,05,26,08,45,10.20
2011,05,26,08,46,10.20
2011,05,26,08,48,10.20
2011,05,26,08,49,10.20
2011,05,26,08,50,10.20
2011,05,26,08,51,10.20
2011,05,26,08,53,10.20
2011,05,26,08,54,10.10
2011,05,26,08,55,10.10
2011,05,26,08,56,10.10
2011,05,26,08,58,10.10
2011,05,26,08,59,10.20
2011,05,26,09,00,10.20
2011,05,26,09,01,10.20
2011,05,26,09,03,10.30
2011,05,26,09,04,10.30
2011,05,26,09,05,10.40
2011,05,26,09,06,10.40
2011,05,26,09,07,10.40
2011,05,26,09,08,10.40
2011,05,26,09,09,10.50
2011,05,26,09,10,10.60
2011,05,26,09,11,10.60
2011,05,26,09,12,10.60
2011,05,26,09,13,10.60
2011,05,26,09,14,10.70
2011,05,26,09,15,10.70
2011,05,26,09,16,10.70
2011,05,26,09,17,10.80
2011,05,26,09,18,10.80
2011,05,26,09,19,10.80
2011,05,26,09,20,10.70
2011,05,26,09,22,10.70
2011,05,26,09,23,10.60
2011,05,26,09,24,10.60
2011,05,26,09,26,10.60
2011,05,26,09,27,10.60
2011,05,26,09,28,10.60
2011,05,26,09,29,10.60
2011,05,26,09,31,10.70
2011,05,26,09,32,10.60
2011,05,26,09,33,10.60
2011,05,26,09,34,10.60
2011,05,26,09,35,10.50
2011,05,26,09,37,10.40
2011,05,26,09,38,10.40
2011,05,26,09,39,10.50
2011,05,26,09,40,10.40
2011,05,26,09,42,10.40
2011,05,26,09,43,10.40
2011,05,26,09,44,10.40
2011,05,26,09,45,10.40
2011,05,26,09,46,10.50
2011,05,26,09,47,10.60
2011,05,26,09,48,10.60
2011,05,26,09,49,10.60
2011,05,26,09,50,10.60
2011,05,26,09,52,10.60
2011,05,26,09,53,10.60
2011,05,26,09,54,10.60
2011,05,26,09,55,10.60
2011,05,26,09,57,10.60
2011,05,26,09,58,10.50
2011,05,26,09,59,10.50
2011,05,26,10,00,10.50
2011,05,26,10,01,10.50
2011,05,26,10,02,10.50
2011,05,26,10,03,10.60
2011,05,26,10,04,10.60
2011,05,26,10,05,10.70
2011,05,26,10,07,10.70
2011,05,26,10,08,10.80
2011,05,26,10,09,10.80
2011,05,26,10,10,10.80
2011,05,26,10,12,10.80
2011,05,26,10,13,10.80
2011,05,26,10,14,10.90
2011,05,26,10,15,10.90
2011,05,26,10,17,10.90
2011,05,26,10,18,10.90
2011,05,26,10,19,10.90
2011,05,26,10,20,10.90
2011,05,26,10,21,10.90
2011,05,26,10,22,10.90
2011,05,26,10,23,11.00
2011,05,26,10,24,11.00
2011,05,26,10,25,11.00
2011,05,26,10,26,11.00
2011,05,26,10,27,11.00
2011,05,26,10,28,11.10
2011,05,26,10,30,11.10
2011,05,26,10,31,11.20
2011,05,26,10,32,11.20
2011,05,26,10,34,11.10
2011,05,26,10,35,11.10
2011,05,26,10,36,11.00
2011,05,26,10,37,11.00
2011,05,26,10,38,11.00
2011,05,26,10,39,10.90
2011,05,26,10,40,10.90
2011,05,26,10,41,10.90
2011,05,26,10,42,11.00
2011,05,26,10,44,11.10
2011,05,26,10,45,11.20
2011,05,26,10,46,11.20
2011,05,26,10,47,11.30
2011,05,26,10,49,11.40
2011,05,26,10,50,11.50
2011,05,26,10,51,11.60
2011,05,26,10,53,11.70
2011,05,26,10,54,11.70
2011,05,26,10,55,11.70
2011,05,26,10,56,11.70
2011,05,26,10,58,11.60
2011,05,26,10,59,11.40
2011,05,26,11,00,11.40
2011,05,26,11,01,11.40
2011,05,26,11,03,11.40
2011,05,26,11,04,11.40
2011,05,26,11,05,11.40
2011,05,26,11,06,11.40
2011,05,26,11,07,11.40
2011,05,26,11,08,11.40
2011,05,26,11,09,11.40
2011,05,26,11,11,11.30
2011,05,26,11,12,11.30
2011,05,26,11,13,11.30
2011,05,26,11,14,11.40
2011,05,26,11,16,11.30
2011,05,26,11,17,11.40
2011,05,26,11,18,11.40
2011,05,26,11,19,11.40
2011,05,26,11,20,11.30
2011,05,26,11,22,11.30
2011,05,26,11,23,11.20
2011,05,26,11,24,11.20
2011,05,26,11,25,11.10
2011,05,26,11,27,11.10
2011,05,26,11,28,11.10
2011,05,26,11,29,11.10
2011,05,26,11,30,11.10
2011,05,26,11,31,11.10
2011,05,26,11,32,11.10
2011,05,26,11,33,11.10
2011,05,26,11,34,11.10
2011,05,26,11,35,11.10
2011,05,26,11,36,11.20
2011,05,26,11,37,11.30
2011,05,26,11,38,11.40
2011,05,26,11,40,11.40
2011,05,26,11,41,11.50
2011,05,26,11,42,11.60
2011,05,26,11,44,11.60
2011,05,26,11,45,11.50
2011,05,26,11,46,11.40
2011,05,26,11,47,11.40
2011,05,26,11,48,11.40
2011,05,26,11,50,11.40
2011,05,26,11,51,11.40
2011,05,26,11,52,11.40
2011,05,26,11,53,11.40
2011,05,26,11,55,11.40
2011,05,26,11,56,11.30
2011,05,26,11,57,11.30
2011,05,26,11,59,11.20
2011,05,26,12,00,11.10
2011,05,26,12,01,11.10
2011,05,26,12,02,11.10
2011,05,26,12,04,11.10
2011,05,26,12,05,11.10
2011,05,26,12,06,11.20
2011,05,26,12,08,11.20
2011,05,26,12,09,11.40
2011,05,26,12,10,11.50
2011,05,26,12,11,11.60
2011,05,26,12,13,11.70
2011,05,26,12,14,11.70
2011,05,26,12,15,11.70
2011,05,26,12,16,11.60
2011,05,26,12,18,11.60
2011,05,26,12,19,11.60
2011,05,26,12,20,11.70
2011,05,26,12,21,11.80
2011,05,26,12,22,11.90
2011,05,26,12,23,12.10
2011,05,26,12,24,12.20
2011,05,26,12,26,12.20
2011,05,26,12,27,12.30
2011,05,26,12,28,12.30
2011,05,26,12,29,12.30
2011,05,26,12,31,12.30
2011,05,26,12,32,12.40
2011,05,26,12,33,12.60
2011,05,26,12,34,12.70
2011,05,26,12,36,12.80
2011,05,26,12,37,12.80
2011,05,26,12,38,12.90
2011,05,26,12,39,13.10
2011,05,26,12,41,13.20
2011,05,26,12,42,13.30
2011,05,26,12,43,13.30
2011,05,26,12,44,13.30
2011,05,26,12,45,13.30
2011,05,26,12,46,13.20
2011,05,26,12,47,13.10
2011,05,26,12,48,13.10
2011,05,26,12,49,13.10
2011,05,26,12,50,13.10
2011,05,26,12,52,13.20
2011,05,26,12,53,13.20
2011,05,26,12,54,13.20
2011,05,26,12,56,13.20
2011,05,26,12,57,13.20
2011,05,26,12,58,13.10
2011,05,26,12,59,13.10
2011,05,26,13,00,13.00
2011,05,26,13,01,13.00
2011,05,26,13,02,13.00
2011,05,26,13,03,13.00
2011,05,26,13,04,13.00
2011,05,26,13,05,12.90
2011,05,26,13,06,12.90
2011,05,26,13,07,12.90
2011,05,26,13,08,12.90
2011,05,26,13,10,12.90
2011,05,26,13,11,13.00
2011,05,26,13,12,13.10
2011,05,26,13,13,13.20
2011,05,26,13,15,13.30
2011,05,26,13,16,13.40
2011,05,26,13,17,13.50
2011,05,26,13,18,13.50
2011,05,26,13,20,13.40
2011,05,26,13,21,13.40
2011,05,26,13,22,13.40
2011,05,26,13,24,13.40
2011,05,26,13,25,13.30
2011,05,26,13,26,13.40
2011,05,26,13,27,13.60
2011,05,26,13,29,13.70
2011,05,26,13,30,13.70
2011,05,26,13,31,13.60
2011,05,26,13,32,13.50
2011,05,26,13,33,13.40
2011,05,26,13,34,13.40
2011,05,26,13,35,13.40
2011,05,26,13,36,13.30
2011,05,26,13,37,13.30
2011,05,26,13,38,13.40
2011,05,26,13,39,13.40
2011,05,26,13,40,13.40
2011,05,26,13,41,13.40
2011,05,26,13,42,13.50
2011,05,26,13,43,13.60
2011,05,26,13,45,13.60
2011,05,26,13,46,13.60
2011,05,26,13,47,13.70
2011,05,26,13,48,13.80
2011,05,26,13,49,13.80
2011,05,26,13,50,13.80
2011,05,26,13,51,13.70
2011,05,26,13,52,13.70
2011,05,26,13,54,13.70
2011,05,26,13,55,13.70
2011,05,26,13,56,13.80
2011,05,26,13,57,13.80
2011,05,26,13,59,13.80
2011,05,26,14,00,13.80
2011,05,26,14,01,13.90
2011,05,26,14,02,13.90
2011,05,26,14,04,13.90
2011,05,26,14,05,13.90
2011,05,26,14,06,13.90
2011,05,26,14,08,14.00
2011,05,26,14,09,14.00
2011,05,26,14,10,13.90
2011,05,26,14,11,13.90
2011,05,26,14,13,13.80
2011,05,26,14,14,13.80
2011,05,26,14,15,13.80
2011,05,26,14,16,13.80
2011,05,26,14,18,13.90
2011,05,26,14,19,13.80
2011,05,26,14,20,13.80
2011,05,26,14,21,13.70
2011,05,26,14,23,13.60
2011,05,26,14,24,13.60
2011,05,26,14,25,13.60
2011,05,26,14,26,13.60
2011,05,26,14,28,13.50
2011,05,26,14,29,13.30
2011,05,26,14,30,13.30
2011,05,26,14,31,13.20
2011,05,26,14,33,13.20
2011,05,26,14,34,13.10
2011,05,26,14,35,13.10
2011,05,26,14,36,13.00
2011,05,26,14,38,13.00
2011,05,26,14,39,13.10
2011,05,26,14,40,13.10
2011,05,26,14,41,13.10
2011,05,26,14,42,13.10
2011,05,26,14,43,13.10
2011,05,26,14,44,13.10
2011,05,26,14,45,13.10
2011,05,26,14,46,13.10
2011,05,26,14,48,13.20
2011,05,26,14,49,13.30
2011,05,26,14,50,13.30
2011,05,26,14,51,13.40
2011,05,26,14,52,13.50
2011,05,26,14,53,13.60
2011,05,26,14,54,13.60
2011,05,26,14,55,13.70
2011,05,26,14,56,13.90
2011,05,26,14,58,14.10
2011,05,26,14,59,14.20
2011,05,26,15,00,14.20
2011,05,26,15,01,14.30
2011,05,26,15,02,14.30
2011,05,26,15,04,14.30
2011,05,26,15,05,14.20
2011,05,26,15,06,14.20
2011,05,26,15,07,14.20
2011,05,26,15,09,14.20
2011,05,26,15,10,14.30
2011,05,26,15,11,14.30
2011,05,26,15,12,14.20
2011,05,26,15,14,14.20
2011,05,26,15,15,14.10
2011,05,26,15,16,14.10
2011,05,26,15,17,14.10
2011,05,26,15,18,14.10
2011,05,26,15,19,14.10
2011,05,26,15,20,14.00
2011,05,26,15,21,14.00
2011,05,26,15,23,14.00
2011,05,26,15,24,14.00
2011,05,26,15,25,14.00
2011,05,26,15,26,14.00
2011,05,26,15,28,14.00
2011,05,26,15,29,14.00
2011,05,26,15,30,14.10
2011,05,26,15,31,14.20
2011,05,26,15,33,14.20
2011,05,26,15,34,14.10
2011,05,26,15,35,14.10
2011,05,26,15,36,14.10
2011,05,26,15,37,14.10
2011,05,26,15,39,14.20
2011,05,26,15,40,14.20
2011,05,26,15,41,14.20
2011,05,26,15,43,14.20
2011,05,26,15,44,14.30
2011,05,26,15,45,14.30
2011,05,26,15,46,14.40
2011,05,26,15,48,14.50
2011,05,26,15,49,14.60
2011,05,26,15,50,14.70
2011,05,26,15,51,14.70
2011,05,26,15,52,14.80
2011,05,26,15,53,14.90
2011,05,26,15,54,14.90
2011,05,26,15,55,14.90
2011,05,26,15,57,14.90
2011,05,26,15,58,14.70
2011,05,26,15,59,14.70
2011,05,26,16,00,14.60
2011,05,26,16,02,14.50
2011,05,26,16,03,14.60
2011,05,26,16,04,14.60
2011,05,26,16,05,14.60
2011,05,26,16,06,14.60
2011,05,26,16,07,14.60
2011,05,26,16,08,14.70
2011,05,26,16,09,14.70
2011,05,26,16,11,14.80
2011,05,26,16,12,14.80
2011,05,26,16,13,14.90
2011,05,26,16,14,14.90
2011,05,26,16,16,15.00
2011,05,26,16,17,15.10
2011,05,26,16,18,15.10
2011,05,26,16,19,15.10
2011,05,26,16,20,15.20
2011,05,26,16,21,15.10
2011,05,26,16,22,15.10
2011,05,26,16,23,15.10
2011,05,26,16,25,15.00
2011,05,26,16,26,15.00
2011,05,26,16,27,15.00
2011,05,26,16,28,15.00
2011,05,26,16,29,15.10
2011,05,26,16,31,15.10
2011,05,26,16,32,15.20
2011,05,26,16,33,15.30
2011,05,26,16,34,15.30
2011,05,26,16,35,15.30
2011,05,26,16,36,15.30
2011,05,26,16,37,15.30
2011,05,26,16,38,15.30
2011,05,26,16,39,15.30
2011,05,26,16,40,15.30
2011,05,26,16,41,15.20
2011,05,26,16,42,15.20
2011,05,26,16,44,15.10
2011,05,26,16,45,14.90
2011,05,26,16,46,14.80
2011,05,26,16,47,14.70
2011,05,26,16,48,14.70
2011,05,26,16,49,14.60
2011,05,26,16,50,14.60
2011,05,26,16,51,14.60
2011,05,26,16,52,14.60
2011,05,26,16,53,14.60
2011,05,26,16,54,14.60
2011,05,26,16,55,14.60
2011,05,26,16,56,14.60
2011,05,26,16,57,14.60
2011,05,26,16,59,14.60
2011,05,26,17,00,14.70
2011,05,26,17,01,14.70
2011,05,26,17,02,14.70
2011,05,26,17,03,14.70
2011,05,26,17,04,14.70
2011,05,26,17,05,14.70
2011,05,26,17,06,14.70
2011,05,26,17,07,14.60
2011,05,26,17,08,14.60
2011,05,26,17,10,14.60
2011,05,26,17,11,14.70
2011,05,26,17,12,14.60
2011,05,26,17,13,14.60
2011,05,26,17,14,14.60
2011,05,26,17,15,14.60
2011,05,26,17,16,14.70
2011,05,26,17,17,14.70
2011,05,26,17,18,14.70
2011,05,26,17,19,14.70
2011,05,26,17,21,14.70
2011,05,26,17,22,14.70
2011,05,26,17,23,14.70
2011,05,26,17,24,14.60
2011,05,26,17,25,14.60
2011,05,26,17,26,14.60
2011,05,26,17,27,14.60
2011,05,26,17,28,14.50
2011,05,26,17,29,14.60
2011,05,26,17,30,14.60
2011,05,26,17,32,14.60
2011,05,26,17,33,14.70
2011,05,26,17,34,14.70
2011,05,26,17,35,14.70
2011,05,26,17,37,14.70
2011,05,26,17,38,14.80
2011,05,26,17,39,14.80
2011,05,26,17,41,14.80
2011,05,26,17,42,14.80
2011,05,26,17,43,14.90
2011,05,26,17,44,14.90
2011,05,26,17,45,14.90
2011,05,26,17,46,14.90
2011,05,26,17,47,14.90
2011,05,26,17,48,14.90
2011,05,26,17,49,14.90
2011,05,26,17,51,14.90
2011,05,26,17,52,14.90
2011,05,26,17,53,14.80
2011,05,26,17,54,14.80
2011,05,26,17,56,14.70
2011,05,26,17,57,14.70
2011,05,26,17,58,14.70
2011,05,26,17,59,14.70
2011,05,26,18,00,14.70
2011,05,26,18,01,14.70
2011,05,26,18,02,14.70
2011,05,26,18,03,14.70
2011,05,26,18,04,14.70
2011,05,26,18,05,14.70
2011,05,26,18,06,14.70
2011,05,26,18,07,14.70
2011,05,26,18,08,14.70
2011,05,26,18,10,14.70
2011,05,26,18,11,14.60
2011,05,26,18,12,14.60
2011,05,26,18,13,14.70
2011,05,26,18,14,14.70
2011,05,26,18,16,14.70
2011,05,26,18,17,14.70
2011,05,26,18,18,14.70
2011,05,26,18,19,14.60
2011,05,26,18,21,14.60
2011,05,26,18,22,14.60
2011,05,26,18,23,14.60
2011,05,26,18,25,14.50
2011,05,26,18,26,14.40
2011,05,26,18,27,14.40
2011,05,26,18,28,14.30
2011,05,26,18,30,14.30
2011,05,26,18,31,14.30
2011,05,26,18,32,14.20
2011,05,26,18,33,14.20
2011,05,26,18,35,14.20
2011,05,26,18,36,14.20
2011,05,26,18,37,14.10
2011,05,26,18,38,14.10
2011,05,26,18,40,14.00
2011,05,26,18,41,13.90
2011,05,26,18,42,13.90
2011,05,26,18,43,13.90
2011,05,26,18,44,13.90
2011,05,26,18,45,13.90
2011,05,26,18,46,14.00
2011,05,26,18,47,14.00
2011,05,26,18,48,14.10
2011,05,26,18,49,14.10
2011,05,26,18,50,14.10
2011,05,26,18,51,14.10
2011,05,26,18,52,14.10
2011,05,26,18,53,14.10
2011,05,26,18,54,14.10
2011,05,26,18,56,14.10
2011,05,26,18,57,14.00
2011,05,26,18,58,14.00
2011,05,26,18,59,14.00
2011,05,26,19,00,14.00
2011,05,26,19,02,13.90
2011,05,26,19,03,13.90
2011,05,26,19,04,13.90
2011,05,26,19,05,13.90
2011,05,26,19,07,13.90
2011,05,26,19,08,13.90
2011,05,26,19,09,14.00
2011,05,26,19,10,14.10
2011,05,26,19,11,14.10
2011,05,26,19,13,14.10
2011,05,26,19,14,14.00
2011,05,26,19,15,14.00
2011,05,26,19,16,14.00
2011,05,26,19,18,14.00
2011,05,26,19,19,14.00
2011,05,26,19,20,14.00
2011,05,26,19,21,14.00
2011,05,26,19,22,14.00
2011,05,26,19,24,14.00
2011,05,26,19,25,14.10
2011,05,26,19,26,14.10
2011,05,26,19,27,14.10
2011,05,26,19,29,14.00
2011,05,26,19,30,14.00
2011,05,26,19,31,13.90
2011,05,26,19,32,13.90
2011,05,26,19,34,13.90
2011,05,26,19,35,13.80
2011,05,26,19,36,13.80
2011,05,26,19,38,13.80
2011,05,26,19,39,13.70
2011,05,26,19,40,13.70
2011,05,26,19,41,13.70
2011,05,26,19,43,13.70
2011,05,26,19,44,13.60
2011,05,26,19,45,13.60
2011,05,26,19,46,13.60
2011,05,26,19,47,13.60
2011,05,26,19,49,13.60
2011,05,26,19,50,13.60
2011,05,26,19,51,13.60
2011,05,26,19,52,13.60
2011,05,26,19,54,13.50
2011,05,26,19,55,13.50
2011,05,26,19,56,13.40
2011,05,26,19,57,13.40
2011,05,26,19,58,13.30
2011,05,26,19,59,13.30
2011,05,26,20,00,13.30
2011,05,26,20,01,13.20
2011,05,26,20,02,13.20
2011,05,26,20,03,13.10
2011,05,26,20,05,13.00
2011,05,26,20,06,12.90
2011,05,26,20,07,12.90
2011,05,26,20,08,12.90
2011,05,26,20,09,12.80
2011,05,26,20,11,12.80
2011,05,26,20,12,12.70
2011,05,26,20,13,12.70
2011,05,26,20,14,12.70
2011,05,26,20,16,12.70
2011,05,26,20,17,12.70
2011,05,26,20,18,12.70
2011,05,26,20,19,12.60
2011,05,26,20,21,12.70
2011,05,26,20,22,12.70
2011,05,26,20,23,12.70
2011,05,26,20,24,12.70
2011,05,26,20,25,12.70
2011,05,26,20,27,12.70
2011,05,26,20,28,12.70
2011,05,26,20,29,12.70
2011,05,26,20,31,12.70
2011,05,26,20,32,12.70